Overview Statistics Trail Chart Weather Telemetry Raw packets
 

This is the latest recevied weather packets stored in our database for station/object IU3OVK-13. If no packets are shown the sender has not sent any weather packets the latest 10 day(s).

<< 36 37 38 39 40 41 42 >>
Time Temp. Humidity Pressure Rain* Wind** Luminosity Snow
1787887964 20.56° C 99% 1008.3 hPa - - - -
1787887343 20.56° C 99% 1008.4 hPa - - - -
1787886723 21.11° C 99% 1008.4 hPa - - - -
1787885483 21.11° C 99% 1008 hPa - - - -
1787884863 20.56° C 99% 1008.1 hPa - - - -
1787884242 21.11° C 99% 1008.1 hPa - - - -
1787883622 20.56° C 99% 1008.9 hPa - - - -
1787883002 20.56° C 99% 1008.8 hPa - - - -
1787882419 20° C 99% 1008.9 hPa - - - -
1787882383 20° C 99% 1008.9 hPa - - - -
1787881762 20.56° C 99% 1008.5 hPa - - - -
1787881141 21.11° C 99% 1008.5 hPa - - - -
1787880521 20.56° C 99% 1009.2 hPa - - - -
1787879901 21.11° C 99% 1008.9 hPa - - - -
1787879281 21.11° C 99% 1008.9 hPa - - - -
1787878661 21.67° C 99% 1008.6 hPa - - - -
1787878072 21.67° C 99% 1008.6 hPa - - - -
1787878040 21.67° C 99% 1008.6 hPa - - - -
1787876800 21.67° C 99% 1008.5 hPa - - - -
1787864471 23.89° C 99% 1008.8 hPa - - - -
1787863231 24.44° C 99% 1009.1 hPa - - - -
1787862611 25° C 99% 1008.9 hPa - - - -
1787862066 25° C 99% 1008.8 hPa - - - -
1787861991 25° C 99% 1008.8 hPa - - - -
1787861370 24.44° C 99% 1008.7 hPa - - - -

* Rain since midnight (hover to see other rain measurements)
** Current wind speed in m/s (hover to see current wind gust speed)